[[{"header":{"parameterUnit":"m.s-1","parameterCategory":1,"la1":30.2991,"la2":30.254,"lo1":-89.0895,"lo2":-89.0444,"dy":0.0017,"dx":0.0017,"nx":28,"ny":28,"refTime":"2025-05-19T09:00:00:Z","depth":0,"parameterNumber":2,"parameterNumberName":"U-component_of_WINDS"},"data":[0,0,0,0,0,0,0,0,0,0,0,0,0,0,0,0,0,0,0,0,0,0,0,0,0,0,0,0,0,0,0,0,0,0,0,0,0,0,0,0,0,0,0,0,0,0,0,0,0,0,0,0,0,0,0,0,0,0,3.7411,3.7412,0,3.7466,3.7466,3.7467,3.7436,3.7434,3.7433,3.7431,3.7485,3.7488,3.7491,0,0,0,0,0,0,0,0,0,0,0,0,0,3.7276,3.7279,3.7411,3.7412,3.7413,3.7466,3.7466,3.7467,3.7436,3.7434,3.7432,3.743,3.7484,3.7488,3.7491,0,0,0,0,0,0,0,0,0,0,0,0,0,3.7333,3.728,3.7411,3.7403,3.7403,3.7466,3.7466,3.7467,3.7436,3.7434,3.7432,3.743,3.7483,3.7487,3.7491,3.7564,0,0,3.7505,3.7506,0,0,0,0,0,0,0,0,3.733,3.7338,3.7404,3.7404,3.7404,3.7442,3.7439,3.75,3.7437,3.7424,3.7431,3.7428,3.7472,3.7477,3.7493,3.7566,3.7569,3.7505,3.7508,3.7509,3.7511,0,0,0,0,0,0,0,3.7326,3.7336,3.7433,3.7405,3.7405,3.7396,3.7402,3.745,3.746,3.7425,3.7422,3.7429,3.7472,3.7489,3.7494,3.757,3.7505,3.7509,3.7511,3.7513,3.7703,3.7705,0,0,0,0,0,0,3.7323,3.7333,3.7431,3.7434,3.7361,3.74,3.7407,3.7432,3.746,3.7462,3.7431,3.7428,3.7482,3.7489,3.7495,3.758,3.7509,3.7513,3.7516,3.77,3.7703,3.7706,0,0,0,0,0,0,3.732,3.7332,3.7429,3.7383,3.7395,3.7405,3.7434,3.7434,3.7451,3.7465,3.7466,3.7447,3.7481,3.7489,3.7547,3.7582,3.7515,3.7519,3.7697,3.7701,3.7705,3.7751,0,0,0,0,0,0,3.7317,3.7332,3.736,3.7384,3.7397,3.748,3.7436,3.7437,3.7458,3.7454,3.7479,3.7481,3.748,3.754,3.7551,3.7586,3.7523,3.7694,3.7699,3.7704,3.7747,3.7756,3.7764,0,0,0,0,0,3.7312,3.7371,3.7362,3.7374,3.7433,3.7482,3.749,3.7487,3.7461,3.7489,3.7498,3.7481,3.7576,3.7547,3.7558,3.7595,3.7692,3.7698,3.7703,3.7743,3.7754,3.7764,0,0,0,0,0,0,3.7351,3.7374,3.7364,3.7433,3.7456,3.7477,3.7512,3.75,3.753,3.7525,3.752,3.7526,3.7585,3.7596,3.7562,3.7666,3.763,3.7638,3.7656,3.7667,3.7676,3.7671,3.7526,0,0,0,0,0,3.7367,3.7406,3.7424,3.7483,3.7495,3.7502,3.7523,3.7519,3.7542,3.7552,3.7565,3.7588,3.7622,3.7646,3.7679,3.7749,3.7752,3.778,3.7788,3.7796,3.7802,3.7837,3.7849,3.7724,3.7724,3.7724,0,0,3.7402,3.7419,3.7444,3.7491,3.7509,3.7547,3.751,3.7554,3.7582,3.7558,3.7613,3.7623,3.7648,3.7711,3.774,3.7722,3.7838,3.7803,3.7808,3.7811,3.7844,3.7856,3.7867,3.7728,3.7727,3.7727,0,0,3.7484,3.7502,3.7552,3.757,3.7597,3.7601,3.7613,3.7636,3.7642,3.7697,3.7679,3.7712,3.7774,3.7791,3.7808,3.7896,3.788,3.7907,3.7952,3.7987,3.7997,3.8005,3.8034,3.8045,3.7914,3.7914,3.7914,0,3.7523,3.7582,3.7579,3.7623,3.7644,3.7625,3.7674,3.7691,3.7728,3.7741,3.7722,3.7796,3.7812,3.7878,3.7899,3.7915,3.7926,3.7903,3.7996,3.8004,3.8012,3.804,3.8051,3.7917,3.7917,3.7916,3.7916,0,3.7628,3.7669,3.7706,3.7741,3.7766,3.7813,3.7815,3.784,3.7834,3.7839,3.7894,3.7912,3.7948,3.7963,3.7958,3.8028,3.8016,3.7996,3.796,3.8027,3.8053,3.8064,3.7921,3.792,3.7919,3.7918,0,0,3.7736,3.7768,3.7782,3.7797,3.7824,3.7855,3.7901,3.7936,3.7956,3.7982,3.8018,3.8069,3.8051,3.807,3.8066,3.8097,3.8162,3.8073,3.8073,3.8087,3.8238,3.8252,3.8264,3.8153,3.8155,3.8156,3.8235,0,3.7818,3.7898,3.7896,3.7969,3.8005,3.7987,3.8026,3.8046,3.8053,3.8084,3.809,3.8126,3.81,3.8111,3.814,3.8148,3.8192,3.8143,3.8184,3.8186,3.8177,3.8278,3.8293,3.8366,3.8246,3.8247,3.8249,0,3.7925,3.7954,3.8031,3.8051,3.8067,3.8102,3.8132,3.8163,3.8185,3.8187,3.8209,3.8199,3.8243,3.8207,3.8267,3.8233,3.825,3.8256,3.8259,3.8261,3.822,3.8281,3.839,3.8401,3.8265,3.8264,3.8263,0,3.7994,3.8052,3.8104,3.8118,3.8144,3.8169,3.8181,3.8201,3.8221,3.8248,3.8261,3.8293,3.8309,3.8333,3.8332,3.8307,3.8392,3.8356,3.8393,3.8393,3.8411,3.8409,3.8522,3.8425,3.8425,3.8425,3.8425,0,3.8085,3.8132,3.8135,3.8168,3.8219,3.8216,3.8267,3.8276,3.8294,3.8326,3.8313,3.8344,3.8341,3.8372,3.8372,3.842,3.8428,3.843,3.8429,3.843,3.8429,3.844,3.8434,3.8428,3.8427,3.8427,3.8426,0,3.817,3.8174,3.823,3.825,3.8256,3.8293,3.8309,3.8339,3.8344,3.8385,3.8394,3.8402,3.8437,3.8439,3.848,3.8479,3.8537,3.8531,3.8529,3.8527,3.8564,3.856,3.8686,3.8701,3.8596,3.8597,3.8598,0,3.8227,3.8262,3.8286,3.8307,3.832,3.8355,3.8375,3.8373,3.8395,3.8422,3.8448,3.8482,3.8509,3.8566,3.8574,3.8605,3.8599,3.8641,3.8603,3.8602,3.8597,3.8594,3.8596,3.8647,3.8649,3.865,3.865,0,3.8327,3.8327,3.8358,3.8389,3.8414,3.8438,3.8461,3.8479,3.8479,3.8504,3.854,3.8561,3.8602,3.8635,3.8665,3.8676,3.8662,3.8662,3.8672,3.8673,3.8669,3.8669,3.8547,3.8659,3.8658,3.8658,3.8657,3.8657,3.8398,3.8428,3.8449,3.8483,3.85,3.8521,3.8549,3.8557,3.8587,3.8621,3.8618,3.8657,3.8676,3.8715,3.8728,3.8758,3.8743,3.8758,3.8761,3.8765,3.8767,3.8666,3.8763,3.8763,3.8763,3.8763,3.8763,0,3.8496,3.8508,3.8539,3.8571,3.8597,3.8584,3.8608,3.863,3.8665,3.8685,3.8711,3.8751,3.8783,3.8794,3.8824,3.8846,3.8841,3.8854,3.8851,3.8853,3.878,3.8767,3.8858,3.8858,3.8858,3.8858,3.8858,3.8858,3.8549,3.8599,3.8601,3.8658,3.867,3.8708,3.8723,3.8741,3.8757,3.8802,3.8829,3.8836,3.8851,3.8882,3.891,3.8912,3.8923,3.8939,3.8938,3.8869,3.8859,3.885,3.8838,3.8942,3.8942,3.9009,3.901,3.901]},{"header":{"parameterUnit":"m.s-1","parameterCategory":1,"la1":30.2991,"la2":30.254,"lo1":-89.0895,"lo2":-89.0444,"dy":0.0017,"dx":0.0017,"nx":28,"ny":28,"refTime":"2025-05-19T09:00:00:Z","depth":0,"parameterNumber":3,"parameterNumberName":"V-component_of_WINDS"},"data":[0,0,0,0,0,0,0,0,0,0,0,0,0,0,0,0,0,0,0,0,0,0,0,0,0,0,0,0,0,0,0,0,0,0,0,0,0,0,0,0,0,0,0,0,0,0,0,0,0,0,0,0,0,0,0,0,0,0,4.6959,4.6961,0,4.7116,4.7118,4.7119,4.7125,4.7123,4.7121,4.7119,4.7275,4.7281,4.7287,0,0,0,0,0,0,0,0,0,0,0,0,0,4.6659,4.6664,4.6959,4.6961,4.6963,4.7116,4.7118,4.712,4.7125,4.7123,4.712,4.7118,4.7273,4.728,4.7287,0,0,0,0,0,0,0,0,0,0,0,0,0,4.6799,4.6666,4.6959,4.6984,4.6988,4.7115,4.7118,4.712,4.7125,4.7123,4.712,4.7117,4.7271,4.728,4.7288,4.74,0,0,4.7316,4.7319,0,0,0,0,0,0,0,0,4.6791,4.681,4.6978,4.6982,4.6987,4.7098,4.7069,4.7214,4.7126,4.7073,4.7119,4.7116,4.7218,4.7231,4.7267,4.7407,4.7414,4.7316,4.7322,4.7326,4.7328,0,0,0,0,0,0,0,4.6782,4.6804,4.7021,4.6981,4.6986,4.6986,4.7003,4.7097,4.7159,4.7077,4.7078,4.7097,4.722,4.7258,4.727,4.7416,4.7316,4.7324,4.7329,4.7333,4.7655,4.7658,0,0,0,0,0,0,4.6768,4.6796,4.7016,4.7026,4.688,4.6993,4.7012,4.7065,4.7158,4.717,4.7099,4.7097,4.7244,4.726,4.7276,4.7413,4.7325,4.7334,4.7339,4.7652,4.7656,4.7659,0,0,0,0,0,0,4.6761,4.6787,4.701,4.6911,4.6939,4.7002,4.7061,4.707,4.7108,4.7175,4.7186,4.7127,4.7243,4.7263,4.7369,4.7418,4.7338,4.7346,4.7648,4.7653,4.7658,4.7687,0,0,0,0,0,0,4.6753,4.6785,4.6829,4.6912,4.6945,4.7102,4.7064,4.7075,4.7124,4.7122,4.7204,4.7215,4.7242,4.7356,4.7378,4.7429,4.7353,4.7644,4.765,4.7656,4.7682,4.7693,4.7701,0,0,0,0,0,4.6742,4.683,4.6832,4.6858,4.7002,4.7105,4.7123,4.7154,4.7128,4.7172,4.7215,4.7212,4.7409,4.7367,4.7392,4.7446,4.7641,4.7649,4.7656,4.7678,4.7691,4.7701,0,0,0,0,0,0,4.6751,4.6842,4.6844,4.6962,4.7026,4.7105,4.7162,4.7167,4.7238,4.7233,4.7267,4.7285,4.739,4.7429,4.738,4.7558,4.7522,4.7534,4.753,4.7543,4.7552,4.7541,4.736,0,0,0,0,0,4.6766,4.6844,4.6919,4.7016,4.7048,4.71,4.7146,4.7164,4.7231,4.7257,4.7308,4.7371,4.7447,4.7497,4.7571,4.7687,4.7705,4.7737,4.7746,4.7754,4.7765,4.7829,4.7844,4.7683,4.7683,4.7683,0,0,4.68,4.6859,4.6906,4.7019,4.7071,4.7149,4.7122,4.7206,4.7265,4.727,4.7373,4.7412,4.7485,4.7597,4.7648,4.7632,4.7812,4.7763,4.7769,4.7775,4.7838,4.7853,4.7866,4.7688,4.7687,4.7687,0,0,4.6901,4.6954,4.7041,4.7093,4.7172,4.7205,4.7226,4.7305,4.7332,4.7436,4.7442,4.751,4.7641,4.7692,4.7736,4.7855,4.7855,4.7878,4.7928,4.799,4.8003,4.8014,4.8057,4.8072,4.7888,4.7888,4.7888,0,4.6932,4.7052,4.7084,4.7169,4.7218,4.7228,4.7315,4.7363,4.7461,4.7494,4.7474,4.7639,4.7688,4.7812,4.7841,4.7876,4.79,4.7869,4.7999,4.8011,4.8022,4.8063,4.8079,4.7891,4.789,4.789,4.789,0,4.7087,4.717,4.723,4.7326,4.7382,4.7467,4.7511,4.7563,4.7576,4.7611,4.7717,4.7776,4.7862,4.7893,4.7906,4.8018,4.8006,4.7992,4.7956,4.8039,4.8078,4.8094,4.7894,4.7893,4.7892,4.7892,0,0,4.7199,4.7311,4.7333,4.7377,4.7464,4.7527,4.7612,4.7698,4.7742,4.7808,4.788,4.799,4.7978,4.8027,4.8045,4.81,4.8191,4.8079,4.8082,4.8098,4.8318,4.8329,4.8346,4.8191,4.8194,4.8196,4.8312,0,4.731,4.7464,4.7494,4.7627,4.7703,4.7712,4.7786,4.7846,4.7881,4.795,4.7987,4.8065,4.8043,4.8072,4.8127,4.8168,4.8235,4.816,4.8257,4.826,4.824,4.8367,4.8379,4.8485,4.8328,4.833,4.8332,0,4.746,4.7532,4.7673,4.7749,4.7782,4.7849,4.7929,4.7995,4.8063,4.8084,4.8139,4.8151,4.8238,4.8197,4.8317,4.8265,4.8306,4.8332,4.8337,4.8348,4.8302,4.8382,4.852,4.8536,4.8356,4.8355,4.8353,0,4.7529,4.766,4.7762,4.7798,4.789,4.7936,4.7976,4.8041,4.809,4.816,4.8192,4.827,4.8313,4.8372,4.8405,4.8372,4.8522,4.8484,4.8542,4.8541,4.8574,4.8572,4.8721,4.8599,4.8599,4.8598,4.8598,0,4.765,4.7736,4.7794,4.7856,4.7951,4.7985,4.8078,4.8117,4.8175,4.8244,4.8255,4.8319,4.8358,4.8427,4.8453,4.8548,4.8567,4.8586,4.8592,4.8586,4.8584,4.8614,4.8608,4.8603,4.8602,4.8601,4.86,0,4.7743,4.7785,4.7896,4.7974,4.7995,4.8062,4.8128,4.8188,4.8222,4.8309,4.8331,4.8385,4.8467,4.8505,4.8606,4.8623,4.8731,4.8732,4.8709,4.8712,4.8768,4.8762,4.8943,4.8968,4.8828,4.8829,4.883,0,4.7818,4.7885,4.7969,4.8017,4.8059,4.8135,4.8186,4.822,4.8272,4.8354,4.8404,4.8487,4.8555,4.8685,4.8732,4.8809,4.8812,4.8869,4.8823,4.8815,4.8813,4.8809,4.8816,4.8878,4.8879,4.8881,4.8881,0,4.7947,4.7965,4.8038,4.8119,4.8179,4.8243,4.8307,4.8345,4.8389,4.8446,4.8531,4.8584,4.8688,4.8769,4.885,4.8889,4.8893,4.8895,4.8913,4.8908,4.8892,4.8902,4.8733,4.8891,4.889,4.889,4.8889,4.8889,4.8034,4.8093,4.8163,4.8243,4.8295,4.8354,4.8414,4.8456,4.8528,4.8616,4.8631,4.8721,4.8786,4.8895,4.8937,4.9007,4.8993,4.9018,4.9025,4.9031,4.9034,4.888,4.9021,4.9021,4.9021,4.902,4.902,0,4.8164,4.8209,4.8283,4.8372,4.8435,4.8434,4.8504,4.8557,4.8636,4.8697,4.8764,4.8861,4.894,4.8993,4.9073,4.9119,4.9122,4.9138,4.9136,4.9145,4.9042,4.9019,4.9134,4.9134,4.9134,4.9134,4.9134,4.9134,4.8239,4.834,4.8365,4.849,4.8534,4.8624,4.8664,4.8718,4.8767,4.8875,4.8941,4.8976,4.9033,4.9117,4.9189,4.9202,4.9231,4.9248,4.9261,4.9164,4.9152,4.9141,4.912,4.9254,4.9254,4.9359,4.936,4.9361]}]]